Time,TemperatureF,DewpointF,PressureIn,WindDirection,WindDirectionDegrees,WindSpeedMPH,WindSpeedGustMPH,Humidity,HourlyPrecipIn,Conditions,Clouds,dailyrainin,SoftwareType,DateUTC
2013-06-05 00:02:00,56.0,51.0,-100.00,East,100,0.0,1.0,83,0.00,,,-99.99,,2013-06-05 04:02:00,
2013-06-05 00:13:00,56.0,51.0,-100.00,ENE,70,0.0,0.0,83,0.00,,,-99.99,,2013-06-05 04:13:00,
2013-06-05 00:23:00,56.0,51.0,-100.00,NE,50,0.0,0.0,81,0.00,,,-99.99,,2013-06-05 04:23:00,
2013-06-05 00:33:00,56.0,51.0,-100.00,NE,35,0.0,0.0,81,0.00,,,-99.99,,2013-06-05 04:33:00,
2013-06-05 00:42:00,56.0,50.0,-100.00,NE,50,0.0,0.0,80,0.00,,,-99.99,,2013-06-05 04:42:00,
2013-06-05 00:53:00,56.0,50.0,-100.00,ENE,70,0.0,0.0,81,0.00,,,-99.99,,2013-06-05 04:53:00,
2013-06-05 01:02:00,56.0,51.0,-100.00,ENE,75,0.0,0.0,82,0.00,,,-99.99,,2013-06-05 05:02:00,
2013-06-05 01:12:00,56.0,51.0,-100.00,NE,45,0.0,1.0,82,0.00,,,-99.99,,2013-06-05 05:12:00,
2013-06-05 01:22:00,56.0,51.0,-100.00,East,80,0.0,0.0,83,0.00,,,-99.99,,2013-06-05 05:22:00,
2013-06-05 01:32:00,55.0,51.0,-100.00,East,85,0.0,0.0,84,0.00,,,-99.99,,2013-06-05 05:32:00,
2013-06-05 01:42:00,56.0,51.0,-100.00,NE,50,0.0,0.0,84,0.00,,,-99.99,,2013-06-05 05:42:00,
2013-06-05 01:52:00,55.0,51.0,-100.00,ENE,75,0.0,0.0,85,0.00,,,-99.99,,2013-06-05 05:52:00,
2013-06-05 02:02:00,55.0,51.0,-100.00,ENE,65,0.0,0.0,85,0.00,,,-99.99,,2013-06-05 06:02:00,
2013-06-05 02:12:00,55.0,51.0,-100.00,NE,50,0.0,0.0,85,0.00,,,-99.99,,2013-06-05 06:12:00,
2013-06-05 02:22:00,55.0,51.0,-100.00,NE,45,0.0,0.0,85,0.00,,,-99.99,,2013-06-05 06:22:00,
2013-06-05 02:32:00,54.0,50.0,-100.00,ENE,60,0.0,0.0,86,0.00,,,-99.99,,2013-06-05 06:32:00,
2013-06-05 02:42:00,54.0,50.0,-100.00,ENE,65,0.0,0.0,84,0.00,,,-99.99,,2013-06-05 06:42:00,
2013-06-05 02:52:00,54.0,50.0,-100.00,ENE,65,0.0,0.0,85,0.00,,,-99.99,,2013-06-05 06:52:00,
2013-06-05 03:02:00,54.0,50.0,-100.00,ENE,65,0.0,0.0,85,0.00,,,-99.99,,2013-06-05 07:02:00,
2013-06-05 03:12:00,54.0,50.0,-100.00,NNE,30,0.0,0.0,85,0.00,,,-99.99,,2013-06-05 07:12:00,
2013-06-05 03:22:00,54.0,50.0,-100.00,NNE,30,0.0,0.0,85,0.00,,,-99.99,,2013-06-05 07:22:00,
2013-06-05 03:32:00,54.0,50.0,-100.00,East,80,0.0,0.0,86,0.00,,,-99.99,,2013-06-05 07:32:00,
2013-06-05 03:42:00,53.0,50.0,-100.00,East,85,0.0,0.0,87,0.00,,,-99.99,,2013-06-05 07:42:00,
2013-06-05 03:52:00,54.0,50.0,-100.00,NE,40,0.0,0.0,88,0.00,,,-99.99,,2013-06-05 07:52:00,
2013-06-05 04:02:00,54.0,50.0,-100.00,East,95,0.0,0.0,88,0.00,,,-99.99,,2013-06-05 08:02:00,
2013-06-05 04:12:00,54.0,50.0,-100.00,NE,50,0.0,0.0,88,0.00,,,-99.99,,2013-06-05 08:12:00,
2013-06-05 04:22:00,54.0,50.0,-100.00,East,95,0.0,0.0,88,0.00,,,-99.99,,2013-06-05 08:22:00,
2013-06-05 04:32:00,53.0,50.0,-100.00,ESE,115,0.0,0.0,88,0.00,,,-99.99,,2013-06-05 08:32:00,
2013-06-05 04:42:00,53.0,50.0,-100.00,East,100,0.0,0.0,89,0.00,,,-99.99,,2013-06-05 08:42:00,
2013-06-05 04:52:00,54.0,51.0,-100.00,NE,45,0.0,0.0,88,0.00,,,-99.99,,2013-06-05 08:52:00,
2013-06-05 05:02:00,54.0,51.0,-100.00,NE,45,0.0,0.0,88,0.00,,,-99.99,,2013-06-05 09:02:00,
2013-06-05 05:12:00,53.0,50.0,-100.00,ENE,75,0.0,0.0,89,0.00,,,-99.99,,2013-06-05 09:12:00,
2013-06-05 05:22:00,53.0,50.0,-100.00,NNE,30,0.0,0.0,89,0.00,,,-99.99,,2013-06-05 09:22:00,
2013-06-05 05:33:00,53.0,50.0,-100.00,NE,45,0.0,0.0,89,0.00,,,-99.99,,2013-06-05 09:33:00,
2013-06-05 05:43:00,53.0,50.0,-100.00,NE,55,0.0,0.0,89,0.00,,,-99.99,,2013-06-05 09:43:00,
2013-06-05 05:53:00,53.0,50.0,-100.00,NE,50,0.0,0.0,89,0.00,,,-99.99,,2013-06-05 09:53:00,
2013-06-05 06:03:00,53.0,50.0,-100.00,ENE,60,0.0,2.0,89,0.00,,,-99.99,,2013-06-05 10:03:00,
2013-06-05 06:12:00,53.0,50.0,-100.00,NNE,30,0.0,0.0,88,0.00,,,-99.99,,2013-06-05 10:12:00,
2013-06-05 06:22:00,53.0,50.0,-100.00,East,90,0.0,0.0,89,0.00,,,-99.99,,2013-06-05 10:22:00,
2013-06-05 06:33:00,53.0,50.0,-100.00,East,85,0.0,0.0,89,0.00,,,-99.99,,2013-06-05 10:33:00,
2013-06-05 06:42:00,53.0,50.0,-100.00,ENE,65,0.0,0.0,90,0.00,,,-99.99,,2013-06-05 10:42:00,
2013-06-05 06:52:00,53.0,51.0,-100.00,East,90,0.0,0.0,90,0.00,,,-99.99,,2013-06-05 10:52:00,
2013-06-05 07:02:00,54.0,51.0,-100.00,East,85,0.0,0.0,90,0.00,,,-99.99,,2013-06-05 11:02:00,
2013-06-05 07:12:00,54.0,51.0,-100.00,ENE,60,0.0,0.0,90,0.00,,,-99.99,,2013-06-05 11:12:00,
2013-06-05 07:22:00,55.0,52.0,-100.00,SE,130,0.0,0.0,89,0.00,,,-99.99,,2013-06-05 11:22:00,
2013-06-05 07:33:00,55.0,51.0,-100.00,East,95,0.0,0.0,89,0.00,,,-99.99,,2013-06-05 11:33:00,
2013-06-05 07:42:00,55.0,51.0,-100.00,SE,130,0.0,1.0,89,0.00,,,-99.99,,2013-06-05 11:42:00,
2013-06-05 07:52:00,56.0,52.0,-100.00,East,85,0.0,2.0,88,0.00,,,-99.99,,2013-06-05 11:52:00,
2013-06-05 08:02:00,56.0,52.0,-100.00,East,85,0.0,2.0,88,0.00,,,-99.99,,2013-06-05 12:02:00,
2013-06-05 08:12:00,57.0,53.0,-100.00,SE,145,0.0,3.0,84,0.00,,,-99.99,,2013-06-05 12:12:00,
2013-06-05 08:22:00,58.0,53.0,-100.00,East,100,0.0,1.0,82,0.00,,,-99.99,,2013-06-05 12:22:00,
2013-06-05 08:32:00,59.0,52.0,-100.00,ESE,105,0.0,1.0,78,0.00,,,-99.99,,2013-06-05 12:32:00,
2013-06-05 08:44:00,61.0,52.0,-100.00,ESE,115,0.0,3.0,73,0.00,,,-99.99,,2013-06-05 12:44:00,
2013-06-05 08:52:00,62.0,52.0,-100.00,ESE,110,0.0,6.0,71,0.00,,,-99.99,,2013-06-05 12:52:00,
2013-06-05 09:02:00,63.0,52.0,-100.00,East,85,0.0,3.0,68,0.00,,,-99.99,,2013-06-05 13:02:00,
2013-06-05 09:12:00,64.0,52.0,-100.00,ENE,60,0.0,4.0,66,0.00,,,-99.99,,2013-06-05 13:12:00,
2013-06-05 09:22:00,64.0,52.0,-100.00,SSE,150,1.0,4.0,64,0.00,,,-99.99,,2013-06-05 13:22:00,
2013-06-05 09:32:00,66.0,54.0,-100.00,ENE,60,0.0,2.0,65,0.00,,,-99.99,,2013-06-05 13:32:00,
2013-06-05 09:42:00,66.0,53.0,-100.00,SE,135,0.0,3.0,63,0.00,,,-99.99,,2013-06-05 13:42:00,
2013-06-05 09:52:00,68.0,54.0,-100.00,East,90,0.0,6.0,60,0.00,,,-99.99,,2013-06-05 13:52:00,
2013-06-05 10:02:00,69.0,55.0,-100.00,East,85,0.0,6.0,60,0.00,,,-99.99,,2013-06-05 14:02:00,
2013-06-05 10:12:00,69.0,55.0,-100.00,East,85,0.0,6.0,60,0.00,,,-99.99,,2013-06-05 14:12:00,
2013-06-05 10:22:00,70.0,55.0,-100.00,SSE,150,1.0,3.0,59,0.00,,,-99.99,,2013-06-05 14:22:00,
2013-06-05 10:32:00,71.0,57.0,-100.00,East,95,1.0,4.0,62,0.00,,,-99.99,,2013-06-05 14:32:00,
2013-06-05 10:42:00,72.0,56.0,-100.00,SSE,165,1.0,3.0,57,0.00,,,-99.99,,2013-06-05 14:42:00,
2013-06-05 10:52:00,73.0,57.0,-100.00,NW,315,1.0,4.0,56,0.00,,,-99.99,,2013-06-05 14:52:00,
2013-06-05 11:02:00,74.0,57.0,-100.00,SSE,155,0.0,3.0,55,0.00,,,-99.99,,2013-06-05 15:02:00,
2013-06-05 11:12:00,74.0,58.0,-100.00,ESE,115,3.0,5.0,56,0.00,,,-99.99,,2013-06-05 15:12:00,
2013-06-05 11:22:00,75.0,58.0,-100.00,SSE,155,2.0,5.0,56,0.00,,,-99.99,,2013-06-05 15:22:00,
2013-06-05 11:33:00,76.0,58.0,-100.00,ESE,115,1.0,4.0,54,0.00,,,-99.99,,2013-06-05 15:33:00,
2013-06-05 11:42:00,76.0,58.0,-100.00,South,190,2.0,4.0,51,0.00,,,-99.99,,2013-06-05 15:42:00,
2013-06-05 11:53:00,77.0,58.0,-100.00,South,190,2.0,6.0,51,0.00,,,-99.99,,2013-06-05 15:53:00,
2013-06-05 12:03:00,78.0,59.0,-100.00,SSW,200,1.0,6.0,51,0.00,,,-99.99,,2013-06-05 16:03:00,
2013-06-05 12:13:00,78.0,59.0,-100.00,SSW,195,1.0,4.0,51,0.00,,,-99.99,,2013-06-05 16:13:00,
2013-06-05 12:23:00,78.0,59.0,-100.00,South,190,2.0,6.0,52,0.00,,,-99.99,,2013-06-05 16:23:00,
2013-06-05 12:32:00,78.0,60.0,-100.00,SSE,165,2.0,6.0,52,0.00,,,-99.99,,2013-06-05 16:32:00,
2013-06-05 12:42:00,80.0,60.0,-100.00,SE,140,1.0,6.0,50,0.00,,,-99.99,,2013-06-05 16:42:00,
2013-06-05 12:54:00,80.0,60.0,-100.00,SSE,160,2.0,6.0,50,0.00,,,-99.99,,2013-06-05 16:54:00,
2013-06-05 13:02:00,80.0,60.0,-100.00,SE,135,1.0,6.0,50,0.00,,,-99.99,,2013-06-05 17:02:00,
2013-06-05 13:12:00,81.0,61.0,-100.00,SSW,210,2.0,7.0,50,0.00,,,-99.99,,2013-06-05 17:12:00,
2013-06-05 13:22:00,81.0,60.0,-100.00,SE,145,2.0,6.0,48,0.00,,,-99.99,,2013-06-05 17:22:00,
2013-06-05 13:33:00,83.0,62.0,-100.00,WSW,255,1.0,4.0,49,0.00,,,-99.99,,2013-06-05 17:33:00,
2013-06-05 13:43:00,83.0,60.0,-100.00,South,185,0.0,5.0,45,0.00,,,-99.99,,2013-06-05 17:43:00,
2013-06-05 13:52:00,83.0,62.0,-100.00,SE,140,2.0,7.0,48,0.00,,,-99.99,,2013-06-05 17:52:00,
2013-06-05 14:02:00,82.0,61.0,-100.00,SSW,205,2.0,7.0,50,0.00,,,-99.99,,2013-06-05 18:02:00,
2013-06-05 14:12:00,83.0,62.0,-100.00,SE,145,2.0,6.0,49,0.00,,,-99.99,,2013-06-05 18:12:00,
2013-06-05 14:22:00,83.0,61.0,-100.00,SSE,160,1.0,9.0,48,0.00,,,-99.99,,2013-06-05 18:22:00,
2013-06-05 14:32:00,83.0,61.0,-100.00,SW,220,1.0,6.0,47,0.00,,,-99.99,,2013-06-05 18:32:00,
2013-06-05 14:42:00,83.0,60.0,-100.00,SW,215,4.0,9.0,45,0.00,,,-99.99,,2013-06-05 18:42:00,
2013-06-05 14:52:00,83.0,60.0,-100.00,SW,215,4.0,9.0,45,0.00,,,-99.99,,2013-06-05 18:52:00,
2013-06-05 15:03:00,85.0,61.0,-100.00,SSW,210,2.0,6.0,44,0.00,,,-99.99,,2013-06-05 19:03:00,
2013-06-05 15:12:00,87.0,61.0,-100.00,SW,235,5.0,12.0,42,0.00,,,-99.99,,2013-06-05 19:12:00,
2013-06-05 15:23:00,86.0,61.0,-100.00,SW,220,3.0,7.0,42,0.00,,,-99.99,,2013-06-05 19:23:00,
2013-06-05 15:32:00,87.0,60.0,-100.00,WSW,250,4.0,7.0,39,0.00,,,-99.99,,2013-06-05 19:32:00,
2013-06-05 15:42:00,86.0,59.0,-100.00,SSW,195,4.0,6.0,40,0.00,,,-99.99,,2013-06-05 19:42:00,
2013-06-05 15:52:00,88.0,58.0,-100.00,West,270,2.0,7.0,36,0.00,,,-99.99,,2013-06-05 19:52:00,
2013-06-05 16:03:00,87.0,59.0,-100.00,WNW,290,2.0,7.0,38,0.00,,,-99.99,,2013-06-05 20:03:00,
2013-06-05 16:12:00,88.0,59.0,-100.00,WSW,255,2.0,6.0,37,0.00,,,-99.99,,2013-06-05 20:12:00,
2013-06-05 16:23:00,87.0,59.0,-100.00,SSE,150,3.0,6.0,37,0.00,,,-99.99,,2013-06-05 20:23:00,
2013-06-05 16:32:00,86.0,58.0,-100.00,SW,215,3.0,6.0,38,0.00,,,-99.99,,2013-06-05 20:32:00,
2013-06-05 16:42:00,87.0,60.0,-100.00,SE,145,2.0,7.0,40,0.00,,,-99.99,,2013-06-05 20:42:00,
2013-06-05 16:52:00,87.0,60.0,-100.00,SE,145,1.0,6.0,39,0.00,,,-99.99,,2013-06-05 20:52:00,
2013-06-05 17:02:00,88.0,59.0,-100.00,West,270,2.0,6.0,38,0.00,,,-99.99,,2013-06-05 21:02:00,
2013-06-05 17:12:00,88.0,58.0,-100.00,WSW,245,4.0,9.0,36,0.00,,,-99.99,,2013-06-05 21:12:00,
2013-06-05 17:22:00,87.0,59.0,-100.00,NW,315,3.0,7.0,38,0.00,,,-99.99,,2013-06-05 21:22:00,
2013-06-05 17:33:00,87.0,59.0,-100.00,West,280,1.0,6.0,38,0.00,,,-99.99,,2013-06-05 21:33:00,
2013-06-05 17:43:00,86.0,60.0,-100.00,NW,305,1.0,6.0,41,0.00,,,-99.99,,2013-06-05 21:43:00,
2013-06-05 17:53:00,86.0,59.0,-100.00,WSW,255,2.0,5.0,40,0.00,,,-99.99,,2013-06-05 21:53:00,
2013-06-05 18:02:00,85.0,58.0,-100.00,WNW,300,1.0,6.0,40,0.00,,,-99.99,,2013-06-05 22:02:00,
2013-06-05 18:12:00,85.0,61.0,-100.00,NE,45,1.0,3.0,43,0.00,,,-99.99,,2013-06-05 22:12:00,
2013-06-05 18:22:00,83.0,64.0,-100.00,NNW,335,0.0,3.0,51,0.00,,,-99.99,,2013-06-05 22:22:00,
2013-06-05 18:33:00,83.0,64.0,-100.00,ENE,65,0.0,3.0,53,0.00,,,-99.99,,2013-06-05 22:33:00,
2013-06-05 18:42:00,81.0,66.0,-100.00,East,80,0.0,3.0,59,0.00,,,-99.99,,2013-06-05 22:42:00,
2013-06-05 18:52:00,78.0,63.0,-100.00,SSW,200,12.0,22.0,59,0.00,,,-99.99,,2013-06-05 22:52:00,
2013-06-05 19:02:00,71.0,65.0,-100.00,SW,235,9.0,21.0,80,3.94,,,-99.99,,2013-06-05 23:02:00,
2013-06-05 19:12:00,71.0,66.0,-100.00,SW,230,2.0,9.0,83,0.00,,,-99.99,,2013-06-05 23:12:00,
2013-06-05 19:22:00,71.0,65.0,-100.00,East,90,0.0,5.0,83,0.00,,,-99.99,,2013-06-05 23:22:00,
2013-06-05 19:42:00,71.0,67.0,-100.00,NE,35,0.0,0.0,87,0.00,,,-99.99,,2013-06-05 23:42:00,
2013-06-05 19:53:00,70.0,66.0,-100.00,ESE,110,0.0,1.0,88,0.00,,,-99.99,,2013-06-05 23:53:00,
2013-06-05 20:02:00,71.0,67.0,-100.00,South,175,0.0,2.0,88,0.00,,,-99.99,,2013-06-06 00:02:00,
2013-06-05 20:12:00,70.0,67.0,-100.00,ENE,60,0.0,1.0,89,0.00,,,-99.99,,2013-06-06 00:12:00,
2013-06-05 20:22:00,70.0,67.0,-100.00,NE,50,0.0,0.0,89,0.00,,,-99.99,,2013-06-06 00:22:00,
2013-06-05 20:32:00,70.0,67.0,-100.00,NE,40,0.0,0.0,89,0.00,,,-99.99,,2013-06-06 00:32:00,
2013-06-05 20:42:00,70.0,67.0,-100.00,NE,55,0.0,0.0,90,0.00,,,-99.99,,2013-06-06 00:42:00,
2013-06-05 20:52:00,69.0,66.0,-100.00,ESE,110,0.0,0.0,90,0.00,,,-99.99,,2013-06-06 00:52:00,
2013-06-05 21:02:00,69.0,66.0,-100.00,NNE,20,0.0,0.0,90,0.00,,,-99.99,,2013-06-06 01:02:00,
2013-06-05 21:12:00,69.0,66.0,-100.00,SSE,165,0.0,0.0,91,0.00,,,-99.99,,2013-06-06 01:12:00,
2013-06-05 21:22:00,69.0,66.0,-100.00,NE,55,0.0,1.0,91,0.00,,,-99.99,,2013-06-06 01:22:00,
2013-06-05 21:32:00,69.0,66.0,-100.00,SE,135,0.0,0.0,91,0.00,,,-99.99,,2013-06-06 01:32:00,
2013-06-05 21:42:00,69.0,66.0,-100.00,West,260,0.0,0.0,91,0.00,,,-99.99,,2013-06-06 01:42:00,
2013-06-05 21:52:00,69.0,66.0,-100.00,NNE,25,0.0,0.0,91,0.00,,,-99.99,,2013-06-06 01:52:00,
2013-06-05 22:02:00,68.0,66.0,-100.00,NNE,20,0.0,0.0,91,0.00,,,-99.99,,2013-06-06 02:02:00,
2013-06-05 22:12:00,68.0,65.0,-100.00,NE,55,0.0,0.0,91,0.00,,,-99.99,,2013-06-06 02:12:00,
2013-06-05 22:22:00,68.0,66.0,-100.00,NE,35,0.0,0.0,91,0.00,,,-99.99,,2013-06-06 02:22:00,
2013-06-05 22:32:00,68.0,66.0,-100.00,East,85,0.0,0.0,92,0.00,,,-99.99,,2013-06-06 02:32:00,
2013-06-05 22:42:00,68.0,66.0,-100.00,East,85,0.0,0.0,92,0.00,,,-99.99,,2013-06-06 02:42:00,
2013-06-05 22:52:00,68.0,66.0,-100.00,East,85,0.0,0.0,92,0.00,,,-99.99,,2013-06-06 02:52:00,
2013-06-05 23:02:00,68.0,66.0,-100.00,ENE,65,0.0,1.0,91,0.00,,,-99.99,,2013-06-06 03:02:00,
2013-06-05 23:12:00,68.0,66.0,-100.00,NNW,335,0.0,1.0,91,0.00,,,-99.99,,2013-06-06 03:12:00,
2013-06-05 23:22:00,68.0,66.0,-100.00,ENE,60,0.0,0.0,91,0.00,,,-99.99,,2013-06-06 03:22:00,
2013-06-05 23:33:00,69.0,66.0,-100.00,SW,220,0.0,0.0,92,0.00,,,-99.99,,2013-06-06 03:33:00,
2013-06-05 23:43:00,69.0,66.0,-100.00,NW,320,0.0,0.0,91,0.00,,,-99.99,,2013-06-06 03:43:00,
2013-06-05 23:52:00,69.0,66.0,-100.00,ENE,75,0.0,0.0,91,0.00,,,-99.99,,2013-06-06 03:52:00,